FDX619 KMIA-KMEM

Flight info

Callsign FDX619
Flight time 2h 0m
Altitude 30000
Route HURCN4 SMELZ Q116 GOOGY WASER VANZE3
Aircraft MD11/H-SDFGHIRWXYZ/LB1D1

Departure

Time 2026-05-05 13:44
Airport Miami International Airport (KMIA)

Arrival

Time 2026-05-05 15:44
Airport Memphis International Airport (KMEM)
Time Latitude Longitude Altitude Speed Heading
2026-05-05 13:10 25.80505 -80.29570 26 ft 0 kts 357°
2026-05-05 13:34 25.80494 -80.29569 29 ft 4 kts 353°
2026-05-05 13:34 25.80468 -80.29564 28 ft 4 kts 336°
2026-05-05 13:34 25.80446 -80.29550 27 ft 4 kts 311°
2026-05-05 13:34 25.80433 -80.29527 26 ft 4 kts 284°
2026-05-05 13:35 25.80429 -80.29498 24 ft 4 kts 267°
2026-05-05 13:35 25.80431 -80.29475 24 ft 0 kts 265°
2026-05-05 13:38 25.80430 -80.29481 24 ft 2 kts 265°
2026-05-05 13:38 25.80428 -80.29509 24 ft 5 kts 265°
2026-05-05 13:39 25.80426 -80.29544 27 ft 5 kts 266°
2026-05-05 13:39 25.80424 -80.29591 29 ft 7 kts 267°
2026-05-05 13:39 25.80421 -80.29656 26 ft 10 kts 267°
2026-05-05 13:39 25.80418 -80.29744 27 ft 13 kts 268°
2026-05-05 13:40 25.80414 -80.29853 29 ft 15 kts 268°
2026-05-05 13:40 25.80409 -80.29962 28 ft 12 kts 266°
2026-05-05 13:40 25.80405 -80.30048 25 ft 10 kts 267°
2026-05-05 13:40 25.80401 -80.30108 26 ft 7 kts 258°
2026-05-05 13:41 25.80392 -80.30128 28 ft 0 kts 235°
2026-05-05 13:41 25.80391 -80.30129 28 ft 1 kts 232°
2026-05-05 13:42 25.80377 -80.30136 29 ft 4 kts 201°
2026-05-05 13:42 25.80329 -80.30143 26 ft 9 kts 179°
2026-05-05 13:42 25.80295 -80.30119 28 ft 3 kts 115°
2026-05-05 13:42 25.80294 -80.30091 28 ft 4 kts 88°
2026-05-05 13:43 25.80296 -80.30033 28 ft 15 kts 88°
2026-05-05 13:43 25.80311 -80.29662 27 ft 91 kts 87°
2026-05-05 13:43 25.80356 -80.28644 25 ft 170 kts 86°
2026-05-05 13:43 25.80408 -80.27184 399 ft 199 kts 86°
2026-05-05 13:44 25.80483 -80.25640 1342 ft 199 kts 86°
2026-05-05 13:44 25.80544 -80.24138 2489 ft 191 kts 86°
2026-05-05 13:44 25.80604 -80.22670 3482 ft 192 kts 86°
2026-05-05 13:44 25.80643 -80.21124 4144 ft 210 kts 88°
2026-05-05 13:45 25.80754 -80.19401 4485 ft 238 kts 78°
2026-05-05 13:45 25.81307 -80.17581 4576 ft 269 kts 62°
2026-05-05 13:45 25.82474 -80.15866 5030 ft 276 kts 41°
2026-05-05 13:45 25.84032 -80.14720 5928 ft 266 kts 21°
2026-05-05 13:46 25.85779 -80.14218 6690 ft 261 kts
2026-05-05 13:46 25.87569 -80.14378 7343 ft 258 kts 345°
2026-05-05 13:46 25.89304 -80.14927 7854 ft 261 kts 335°
2026-05-05 13:46 25.91017 -80.15791 8204 ft 275 kts 331°
2026-05-05 13:47 25.92786 -80.16664 8461 ft 289 kts 334°
2026-05-05 13:47 25.94052 -80.17214 8919 ft 282 kts 336°
2026-05-05 13:47 25.96441 -80.18306 9786 ft 280 kts 329°
2026-05-05 13:47 25.97569 -80.19059 10100 ft 281 kts 321°
2026-05-05 13:48 25.99468 -80.21117 10266 ft 299 kts 303°
2026-05-05 13:48 26.00510 -80.23204 10405 ft 323 kts 292°
2026-05-05 13:48 26.01117 -80.24809 10534 ft 342 kts 290°
2026-05-05 13:48 26.01978 -80.27300 11287 ft 347 kts 290°
2026-05-05 13:49 26.02837 -80.29825 12172 ft 351 kts 290°
2026-05-05 13:49 26.03712 -80.32369 13031 ft 354 kts 290°
2026-05-05 13:49 26.04605 -80.34929 13883 ft 357 kts 290°
2026-05-05 13:49 26.05513 -80.37509 14633 ft 360 kts 290°
2026-05-05 13:50 26.06432 -80.40104 15377 ft 361 kts 291°
2026-05-05 13:50 26.07361 -80.42718 16113 ft 364 kts 291°
2026-05-05 13:50 26.08292 -80.45335 16826 ft 366 kts 291°
2026-05-05 13:50 26.09234 -80.47981 17515 ft 368 kts 291°
2026-05-05 13:51 26.10168 -80.50603 18198 ft 371 kts 291°
2026-05-05 13:51 26.11137 -80.53275 18716 ft 375 kts 293°
2026-05-05 13:51 26.12315 -80.55862 19049 ft 375 kts 301°
2026-05-05 13:51 26.13883 -80.58199 19391 ft 378 kts 311°
2026-05-05 13:52 26.15859 -80.60138 19748 ft 383 kts 322°
2026-05-05 13:52 26.18177 -80.61639 19992 ft 389 kts 330°
2026-05-05 13:52 26.20651 -80.62876 20034 ft 391 kts 333°
2026-05-05 13:52 26.23169 -80.64021 20047 ft 391 kts 334°
2026-05-05 13:53 26.25698 -80.65160 20055 ft 391 kts 334°
2026-05-05 13:53 26.28212 -80.66315 20055 ft 391 kts 333°
2026-05-05 13:53 26.30723 -80.67492 20053 ft 391 kts 333°
2026-05-05 13:53 26.33215 -80.68680 20058 ft 390 kts 333°
2026-05-05 13:54 26.35682 -80.69866 20057 ft 390 kts 333°
2026-05-05 13:54 26.38171 -80.71078 20054 ft 390 kts 331°
2026-05-05 13:54 26.40526 -80.72534 20051 ft 385 kts 321°
2026-05-05 13:54 26.42551 -80.74467 20050 ft 382 kts 313°
2026-05-05 13:55 26.44373 -80.76618 20059 ft 381 kts 310°
2026-05-05 13:55 26.46131 -80.78833 20058 ft 381 kts 309°
2026-05-05 13:55 26.47884 -80.81057 20099 ft 383 kts 309°
2026-05-05 13:55 26.49648 -80.83272 20744 ft 382 kts 310°
2026-05-05 13:56 26.51426 -80.85481 21298 ft 384 kts 310°
2026-05-05 13:56 26.53228 -80.87700 21878 ft 386 kts 310°
2026-05-05 13:56 26.55038 -80.89917 22454 ft 388 kts 310°
2026-05-05 13:56 26.56863 -80.92145 23040 ft 390 kts 311°
2026-05-05 13:57 26.58700 -80.94385 23631 ft 392 kts 311°
2026-05-05 13:57 26.60548 -80.96639 24134 ft 395 kts 311°
2026-05-05 13:57 26.62413 -80.98913 24628 ft 397 kts 311°
2026-05-05 13:57 26.64286 -81.01198 25127 ft 400 kts 311°
2026-05-05 13:58 26.66171 -81.03499 25638 ft 403 kts 311°
2026-05-05 13:58 26.68043 -81.05785 26140 ft 405 kts 311°
2026-05-05 13:58 26.69979 -81.08151 26638 ft 408 kts 311°
2026-05-05 13:58 26.71877 -81.10472 27118 ft 411 kts 311°
2026-05-05 13:59 26.75764 -81.15227 28102 ft 417 kts 311°
2026-05-05 13:59 26.77726 -81.17630 28569 ft 420 kts 311°
2026-05-05 14:00 26.81692 -81.22491 29365 ft 425 kts 311°
2026-05-05 14:00 26.83691 -81.24943 29772 ft 426 kts 311°
2026-05-05 14:00 26.85699 -81.27408 30011 ft 431 kts 311°
2026-05-05 14:00 26.87726 -81.29896 30061 ft 435 kts 311°
2026-05-05 14:01 26.91817 -81.34925 30068 ft 437 kts 311°
2026-05-05 14:01 26.95915 -81.39968 30070 ft 437 kts 312°
2026-05-05 14:02 27.00005 -81.45006 30077 ft 436 kts 312°
2026-05-05 14:02 27.04188 -81.49946 30076 ft 437 kts 318°
2026-05-05 14:03 27.09079 -81.53908 30067 ft 438 kts 325°
2026-05-05 14:03 27.14238 -81.57543 30072 ft 437 kts 326°
2026-05-05 14:04 27.19384 -81.61207 30077 ft 437 kts 325°
2026-05-05 14:04 27.24492 -81.64912 30075 ft 437 kts 325°
2026-05-05 14:05 27.29598 -81.68642 30080 ft 437 kts 324°
2026-05-05 14:05 27.34687 -81.72368 30076 ft 437 kts 324°
2026-05-05 14:06 27.39784 -81.76102 30074 ft 437 kts 324°
2026-05-05 14:06 27.44930 -81.79744 30077 ft 438 kts 329°
2026-05-05 14:07 27.50423 -81.82658 30078 ft 439 kts 333°
2026-05-05 14:07 27.56054 -81.85352 30080 ft 440 kts 334°
2026-05-05 14:08 27.61672 -81.88066 30090 ft 439 kts 333°
2026-05-05 14:08 27.67269 -81.90812 30077 ft 439 kts 333°
2026-05-05 14:09 27.72859 -81.93571 30089 ft 438 kts 333°
2026-05-05 14:09 27.78447 -81.96333 30093 ft 438 kts 333°
2026-05-05 14:10 27.84033 -81.99097 30088 ft 438 kts 333°
2026-05-05 14:10 27.89585 -82.01846 30093 ft 438 kts 333°
2026-05-05 14:11 27.95166 -82.04613 30092 ft 438 kts 333°
2026-05-05 14:11 28.00750 -82.07385 30096 ft 438 kts 333°
2026-05-05 14:12 28.06327 -82.10156 30092 ft 438 kts 333°
2026-05-05 14:12 28.11744 -82.13243 30092 ft 434 kts 325°
2026-05-05 14:13 28.16705 -82.17141 30092 ft 433 kts 322°
2026-05-05 14:13 28.21570 -82.21157 30093 ft 433 kts 322°
2026-05-05 14:14 28.26465 -82.25140 30093 ft 433 kts 322°
2026-05-05 14:14 28.31376 -82.29097 30097 ft 433 kts 322°
2026-05-05 14:15 28.36295 -82.33054 30094 ft 433 kts 322°
2026-05-05 14:15 28.41174 -82.36983 30092 ft 433 kts 322°
2026-05-05 14:16 28.46083 -82.40942 30092 ft 433 kts 322°
2026-05-05 14:16 28.50992 -82.44905 30092 ft 432 kts 322°
2026-05-05 14:17 28.55902 -82.48874 30092 ft 432 kts 322°
2026-05-05 14:17 28.60806 -82.52844 30091 ft 432 kts 322°
2026-05-05 14:18 28.65708 -82.56815 30093 ft 432 kts 322°
2026-05-05 14:18 28.70606 -82.60789 30101 ft 432 kts 322°
2026-05-05 14:19 28.75481 -82.64748 30101 ft 432 kts 322°
2026-05-05 14:19 28.80371 -82.68733 30100 ft 432 kts 322°
2026-05-05 14:20 28.85252 -82.72722 30098 ft 432 kts 322°
2026-05-05 14:20 28.90145 -82.76717 30098 ft 432 kts 322°
2026-05-05 14:21 28.95030 -82.80703 30100 ft 432 kts 322°
2026-05-05 14:21 28.99928 -82.84705 30098 ft 432 kts 322°
2026-05-05 14:22 29.04815 -82.88702 30091 ft 432 kts 322°
2026-05-05 14:22 29.09712 -82.92707 30092 ft 432 kts 322°
2026-05-05 14:23 29.14560 -82.96666 30096 ft 431 kts 322°
2026-05-05 14:23 29.19440 -83.00652 30097 ft 431 kts 322°
2026-05-05 14:24 29.24316 -83.04638 30097 ft 431 kts 322°
2026-05-05 14:24 29.29192 -83.08634 30094 ft 430 kts 322°
2026-05-05 14:25 29.34059 -83.12626 30092 ft 430 kts 322°
2026-05-05 14:25 29.38918 -83.16615 30095 ft 430 kts 322°
2026-05-05 14:26 29.43783 -83.20612 30092 ft 429 kts 322°
2026-05-05 14:26 29.48607 -83.24580 30093 ft 429 kts 322°
2026-05-05 14:27 29.53456 -83.28573 30095 ft 429 kts 322°
2026-05-05 14:27 29.58301 -83.32569 30096 ft 429 kts 322°
2026-05-05 14:28 29.63147 -83.36569 30097 ft 428 kts 322°
2026-05-05 14:28 29.67968 -83.40554 30096 ft 428 kts 322°
2026-05-05 14:29 29.72805 -83.44557 30095 ft 428 kts 322°
2026-05-05 14:29 29.77644 -83.48566 30098 ft 428 kts 322°
2026-05-05 14:30 29.82469 -83.52568 30099 ft 428 kts 322°
2026-05-05 14:30 29.87296 -83.56584 30107 ft 427 kts 322°
2026-05-05 14:31 29.92079 -83.60574 30109 ft 427 kts 322°
2026-05-05 14:31 29.96894 -83.64586 30108 ft 427 kts 322°
2026-05-05 14:32 30.01707 -83.68596 30110 ft 427 kts 322°
2026-05-05 14:32 30.06517 -83.72608 30112 ft 426 kts 322°
2026-05-05 14:33 30.11324 -83.76621 30099 ft 426 kts 322°
2026-05-05 14:33 30.16126 -83.80636 30101 ft 426 kts 322°
2026-05-05 14:34 30.20920 -83.84659 30098 ft 426 kts 321°
2026-05-05 14:34 30.25700 -83.88675 30095 ft 425 kts 322°
2026-05-05 14:35 30.30487 -83.92698 30094 ft 425 kts 322°
2026-05-05 14:35 30.35265 -83.96716 30097 ft 424 kts 322°
2026-05-05 14:36 30.39236 -84.00059 30095 ft 424 kts 322°
2026-05-05 14:36 30.44005 -84.04079 30092 ft 424 kts 321°
2026-05-05 14:37 30.49552 -84.08761 30095 ft 424 kts 321°
2026-05-05 14:37 30.53541 -84.12132 30094 ft 424 kts 321°
2026-05-05 14:38 30.58307 -84.16164 30089 ft 424 kts 321°
2026-05-05 14:38 30.63072 -84.20200 30092 ft 424 kts 321°
2026-05-05 14:39 30.67838 -84.24242 30095 ft 424 kts 321°
2026-05-05 14:39 30.72603 -84.28289 30095 ft 424 kts 321°
2026-05-05 14:40 30.77344 -84.32320 30092 ft 424 kts 321°
2026-05-05 14:40 30.82110 -84.36377 30100 ft 424 kts 321°
2026-05-05 14:41 30.86862 -84.40439 30102 ft 424 kts 321°
2026-05-05 14:41 30.91580 -84.44483 30107 ft 424 kts 321°
2026-05-05 14:42 30.96342 -84.48558 30108 ft 424 kts 321°
2026-05-05 14:42 31.01104 -84.52634 30118 ft 424 kts 321°
2026-05-05 14:43 31.05861 -84.56710 30118 ft 424 kts 321°
2026-05-05 14:43 31.10620 -84.60791 30116 ft 425 kts 321°
2026-05-05 14:44 31.15384 -84.64883 30114 ft 425 kts 321°
2026-05-05 14:44 31.20116 -84.68953 30110 ft 425 kts 321°
2026-05-05 14:45 31.24873 -84.73049 30111 ft 425 kts 321°
2026-05-05 14:45 31.29624 -84.77145 30120 ft 425 kts 321°
2026-05-05 14:46 31.34374 -84.81246 30118 ft 424 kts 321°
2026-05-05 14:46 31.39122 -84.85351 30121 ft 424 kts 321°
2026-05-05 14:47 31.43866 -84.89456 30117 ft 424 kts 321°
2026-05-05 14:47 31.48608 -84.93566 30119 ft 424 kts 321°
2026-05-05 14:48 31.53345 -84.97686 30112 ft 424 kts 321°
2026-05-05 14:48 31.58076 -85.01825 30099 ft 424 kts 320°
2026-05-05 14:49 31.62773 -85.05957 30105 ft 424 kts 320°
2026-05-05 14:49 31.67496 -85.10116 30105 ft 424 kts 320°
2026-05-05 14:50 31.72220 -85.14278 30103 ft 424 kts 320°
2026-05-05 14:50 31.76948 -85.18448 30109 ft 424 kts 320°
2026-05-05 14:51 31.81665 -85.22614 30109 ft 424 kts 320°
2026-05-05 14:51 31.86379 -85.26782 30109 ft 424 kts 320°
2026-05-05 14:52 31.91088 -85.30952 30105 ft 424 kts 320°
2026-05-05 14:52 31.95794 -85.35124 30104 ft 423 kts 320°
2026-05-05 14:53 32.00466 -85.39272 30098 ft 423 kts 320°
2026-05-05 14:53 32.05171 -85.43454 30096 ft 424 kts 320°
2026-05-05 14:54 32.09875 -85.47642 30095 ft 423 kts 320°
2026-05-05 14:54 32.14580 -85.51835 30087 ft 423 kts 320°
2026-05-05 14:55 32.19283 -85.56032 30088 ft 424 kts 320°
2026-05-05 14:55 32.23987 -85.60241 30081 ft 424 kts 320°
2026-05-05 14:56 32.28691 -85.64472 30083 ft 424 kts 320°
2026-05-05 14:56 32.33394 -85.68697 30080 ft 425 kts 320°
2026-05-05 14:57 32.38075 -85.72899 30078 ft 425 kts 320°
2026-05-05 14:57 32.42777 -85.77123 30074 ft 424 kts 320°
2026-05-05 14:58 32.47468 -85.81344 30070 ft 424 kts 320°
2026-05-05 14:58 32.52173 -85.85583 30065 ft 425 kts 320°
2026-05-05 14:59 32.56875 -85.89824 30063 ft 425 kts 320°
2026-05-05 14:59 32.61578 -85.94073 30067 ft 425 kts 320°
2026-05-05 15:00 32.65488 -85.97609 30068 ft 425 kts 320°
2026-05-05 15:00 32.70984 -86.02587 30064 ft 425 kts 320°
2026-05-05 15:01 32.75687 -86.06853 30059 ft 425 kts 320°
2026-05-05 15:01 32.80391 -86.11125 30062 ft 426 kts 319°
2026-05-05 15:02 32.85096 -86.15404 30060 ft 425 kts 319°
2026-05-05 15:02 32.89794 -86.19686 30066 ft 425 kts 319°
2026-05-05 15:03 32.94480 -86.23983 30074 ft 425 kts 319°
2026-05-05 15:03 32.99135 -86.28246 30084 ft 425 kts 319°
2026-05-05 15:04 33.03826 -86.32540 30086 ft 425 kts 319°
2026-05-05 15:04 33.08520 -86.36838 30091 ft 425 kts 319°
2026-05-05 15:05 33.15563 -86.43300 30091 ft 426 kts 319°
2026-05-05 15:06 33.20257 -86.47613 30084 ft 426 kts 319°
2026-05-05 15:06 33.24958 -86.51939 30071 ft 426 kts 319°
2026-05-05 15:07 33.29657 -86.56269 30064 ft 426 kts 319°
2026-05-05 15:07 33.34354 -86.60603 30058 ft 426 kts 319°
2026-05-05 15:08 33.39017 -86.64913 30068 ft 427 kts 319°
2026-05-05 15:08 33.43713 -86.69259 30074 ft 427 kts 319°
2026-05-05 15:09 33.48408 -86.73610 30076 ft 426 kts 319°
2026-05-05 15:09 33.53094 -86.77958 30076 ft 426 kts 319°
2026-05-05 15:10 33.57777 -86.82323 30078 ft 426 kts 319°
2026-05-05 15:10 33.62449 -86.86692 30066 ft 426 kts 319°
2026-05-05 15:11 33.67047 -86.91157 30056 ft 423 kts 313°
2026-05-05 15:11 33.70486 -86.96818 30048 ft 420 kts 298°
2026-05-05 15:12 33.73177 -87.03047 30028 ft 420 kts 297°
2026-05-05 15:12 33.75862 -87.09278 30026 ft 420 kts 297°
2026-05-05 15:13 33.78596 -87.15428 30033 ft 420 kts 298°
2026-05-05 15:13 33.81372 -87.21599 30050 ft 419 kts 298°
2026-05-05 15:14 33.84152 -87.27775 30054 ft 419 kts 298°
2026-05-05 15:14 33.86920 -87.33939 30056 ft 419 kts 298°
2026-05-05 15:15 33.89692 -87.40122 30053 ft 419 kts 298°
2026-05-05 15:15 33.92447 -87.46303 30048 ft 418 kts 298°
2026-05-05 15:16 33.95197 -87.52482 30031 ft 418 kts 298°
2026-05-05 15:16 33.97924 -87.58607 30020 ft 417 kts 298°
2026-05-05 15:17 34.00668 -87.64772 30004 ft 417 kts 298°
2026-05-05 15:17 34.03586 -87.70821 29992 ft 417 kts 301°
2026-05-05 15:18 34.06727 -87.76706 29988 ft 417 kts 302°
2026-05-05 15:18 34.09890 -87.82581 29993 ft 417 kts 302°
2026-05-05 15:19 34.13036 -87.88464 29991 ft 417 kts 301°
2026-05-05 15:19 34.16169 -87.94350 29987 ft 417 kts 301°
2026-05-05 15:20 34.19299 -88.00245 29961 ft 412 kts 301°
2026-05-05 15:20 34.20813 -88.03134 29795 ft 404 kts 301°
2026-05-05 15:20 34.22281 -88.06034 29657 ft 403 kts 300°
2026-05-05 15:20 34.23725 -88.08932 29492 ft 404 kts 300°
2026-05-05 15:21 34.25174 -88.11850 29339 ft 404 kts 300°
2026-05-05 15:21 34.26617 -88.14760 29195 ft 405 kts 300°
2026-05-05 15:21 34.28070 -88.17688 29042 ft 406 kts 300°
2026-05-05 15:21 34.29521 -88.20608 28909 ft 406 kts 300°
2026-05-05 15:22 34.30978 -88.23540 28747 ft 407 kts 300°
2026-05-05 15:22 34.32419 -88.26443 28601 ft 408 kts 300°
2026-05-05 15:22 34.33878 -88.29389 28473 ft 407 kts 300°
2026-05-05 15:22 34.35295 -88.32262 28469 ft 385 kts 300°
2026-05-05 15:23 34.36655 -88.35022 28469 ft 380 kts 300°
2026-05-05 15:23 34.39352 -88.40504 28467 ft 378 kts 300°
2026-05-05 15:24 34.42046 -88.45984 28326 ft 378 kts 300°
2026-05-05 15:24 34.42938 -88.47800 28165 ft 378 kts 300°
2026-05-05 15:24 34.44279 -88.50530 27655 ft 377 kts 299°
2026-05-05 15:24 34.45617 -88.53256 27158 ft 375 kts 299°
2026-05-05 15:25 34.46943 -88.55959 26675 ft 373 kts 299°
2026-05-05 15:25 34.48267 -88.58661 26090 ft 372 kts 299°
2026-05-05 15:25 34.49585 -88.61352 25437 ft 370 kts 298°
2026-05-05 15:25 34.50896 -88.64030 24750 ft 368 kts 298°
2026-05-05 15:26 34.52202 -88.66700 24058 ft 367 kts 298°
2026-05-05 15:26 34.53501 -88.69360 23322 ft 366 kts 298°
2026-05-05 15:26 34.54792 -88.72004 22529 ft 363 kts 298°
2026-05-05 15:26 34.56074 -88.74630 21800 ft 359 kts 298°
2026-05-05 15:27 34.57344 -88.77236 21095 ft 357 kts 298°
2026-05-05 15:27 34.58599 -88.79813 20416 ft 354 kts 297°
2026-05-05 15:27 34.59845 -88.82373 19729 ft 351 kts 297°
2026-05-05 15:27 34.61080 -88.84912 19062 ft 348 kts 297°
2026-05-05 15:28 34.62304 -88.87430 18399 ft 345 kts 297°
2026-05-05 15:28 34.63460 -88.89959 17665 ft 340 kts 291°
2026-05-05 15:28 34.64266 -88.92632 17049 ft 334 kts 285°
2026-05-05 15:28 34.64893 -88.95326 16426 ft 329 kts 283°
2026-05-05 15:29 34.65464 -88.98000 15803 ft 326 kts 282°
2026-05-05 15:29 34.66022 -89.00654 15173 ft 323 kts 282°
2026-05-05 15:29 34.66572 -89.03254 14562 ft 321 kts 281°
2026-05-05 15:29 34.67132 -89.05875 13954 ft 320 kts 281°
2026-05-05 15:30 34.67683 -89.08494 13397 ft 316 kts 280°
2026-05-05 15:30 34.68196 -89.11085 12852 ft 316 kts 279°
2026-05-05 15:30 34.68696 -89.13675 12275 ft 313 kts 279°
2026-05-05 15:30 34.69190 -89.16243 11705 ft 311 kts 279°
2026-05-05 15:31 34.69681 -89.18799 11251 ft 308 kts 279°
2026-05-05 15:31 34.70169 -89.21332 10883 ft 308 kts 279°
2026-05-05 15:31 34.70654 -89.23851 10580 ft 301 kts 279°
2026-05-05 15:31 34.71125 -89.26286 10365 ft 291 kts 279°
2026-05-05 15:32 34.71580 -89.28637 10157 ft 280 kts 278°
2026-05-05 15:32 34.71982 -89.30821 10045 ft 267 kts 277°
2026-05-05 15:32 34.72601 -89.32949 10017 ft 257 kts 297°
2026-05-05 15:32 34.73913 -89.34447 10022 ft 268 kts 324°
2026-05-05 15:33 34.75701 -89.35212 9948 ft 273 kts 339°
2026-05-05 15:33 34.77575 -89.35709 9117 ft 277 kts 341°
2026-05-05 15:33 34.79434 -89.36274 8394 ft 274 kts 338°
2026-05-05 15:33 34.81263 -89.36910 7680 ft 273 kts 338°
2026-05-05 15:34 34.83056 -89.37549 7054 ft 271 kts 338°
2026-05-05 15:34 34.84860 -89.38203 6413 ft 270 kts 337°
2026-05-05 15:34 34.86655 -89.38862 5761 ft 269 kts 337°
2026-05-05 15:34 34.88458 -89.39518 5161 ft 265 kts 338°
2026-05-05 15:35 34.90155 -89.40241 4549 ft 256 kts 324°
2026-05-05 15:35 34.91390 -89.41654 4152 ft 240 kts 294°
2026-05-05 15:35 34.92135 -89.43498 4122 ft 244 kts 287°
2026-05-05 15:35 34.92826 -89.45393 4062 ft 245 kts 288°
2026-05-05 15:36 34.93547 -89.47279 3997 ft 245 kts 289°
2026-05-05 15:36 34.94296 -89.49143 3936 ft 245 kts 290°
2026-05-05 15:36 34.95068 -89.50997 3872 ft 246 kts 290°
2026-05-05 15:36 34.95856 -89.52846 3814 ft 246 kts 291°
2026-05-05 15:37 34.96655 -89.54688 3743 ft 245 kts 291°
2026-05-05 15:37 34.97461 -89.56520 3691 ft 245 kts 291°
2026-05-05 15:37 34.98259 -89.58321 3625 ft 244 kts 291°
2026-05-05 15:37 34.99066 -89.60135 3569 ft 243 kts 291°
2026-05-05 15:38 34.99874 -89.61943 3500 ft 243 kts 291°
2026-05-05 15:38 35.00683 -89.63749 3443 ft 242 kts 291°
2026-05-05 15:38 35.01490 -89.65547 3394 ft 242 kts 291°
2026-05-05 15:38 35.02293 -89.67331 3320 ft 232 kts 291°
2026-05-05 15:39 35.03038 -89.68964 3174 ft 210 kts 291°
2026-05-05 15:39 35.03715 -89.70452 3081 ft 192 kts 290°
2026-05-05 15:39 35.04341 -89.71836 3017 ft 181 kts 289°
2026-05-05 15:39 35.04879 -89.73211 3012 ft 175 kts 276°
2026-05-05 15:40 35.05030 -89.74639 3038 ft 169 kts 267°
2026-05-05 15:40 35.05144 -89.76065 3023 ft 168 kts 266°
2026-05-05 15:40 35.05243 -89.77482 3023 ft 167 kts 265°
2026-05-05 15:40 35.05295 -89.78897 3008 ft 168 kts 263°
2026-05-05 15:41 35.05331 -89.80328 2804 ft 166 kts 264°
2026-05-05 15:41 35.05373 -89.81694 2560 ft 154 kts 263°
2026-05-05 15:41 35.05413 -89.82941 2364 ft 144 kts 261°
2026-05-05 15:41 35.05442 -89.84175 2176 ft 146 kts 262°
2026-05-05 15:42 35.05476 -89.85421 1982 ft 147 kts 262°
2026-05-05 15:42 35.05513 -89.86672 1766 ft 148 kts 262°
2026-05-05 15:42 35.05546 -89.87950 1613 ft 152 kts 261°
2026-05-05 15:42 35.05581 -89.89245 1441 ft 153 kts 263°
2026-05-05 15:43 35.05623 -89.90541 1143 ft 153 kts 264°
2026-05-05 15:43 35.05660 -89.91837 970 ft 151 kts 265°
2026-05-05 15:43 35.05697 -89.93129 697 ft 154 kts 267°
2026-05-05 15:43 35.05735 -89.94416 476 ft 158 kts 268°
2026-05-05 15:44 35.05788 -89.95777 364 ft 153 kts 268°
2026-05-05 15:44 35.05812 -89.96893 332 ft 111 kts 274°
2026-05-05 15:44 35.05842 -89.97781 340 ft 90 kts 274°
2026-05-05 15:44 35.05854 -89.98286 337 ft 23 kts 272°
2026-05-05 15:45 35.05858 -89.98436 337 ft 9 kts 272°
2026-05-05 15:45 35.05864 -89.98476 337 ft 3 kts 294°
2026-05-05 15:45 35.05872 -89.98487 333 ft 2 kts 311°
2026-05-05 15:45 35.05890 -89.98499 335 ft 5 kts 337°
2026-05-05 15:46 35.05931 -89.98508 335 ft 6 kts 354°
2026-05-05 15:46 35.05969 -89.98510 335 ft 5 kts 359°
2026-05-05 15:46 35.06004 -89.98496 335 ft 5 kts 36°
2026-05-05 15:46 35.06020 -89.98453 335 ft 7 kts 77°
2026-05-05 15:47 35.06023 -89.98380 334 ft 10 kts 91°
2026-05-05 15:47 35.06021 -89.98319 334 ft 12 kts 92°
2026-05-05 15:47 35.06017 -89.98170 336 ft 14 kts 92°
2026-05-05 15:47 35.06013 -89.98040 338 ft 16 kts 92°
2026-05-05 15:48 35.06009 -89.97894 335 ft 18 kts 92°
2026-05-05 15:48 35.05995 -89.97735 333 ft 20 kts 103°
2026-05-05 15:48 35.05962 -89.97579 335 ft 17 kts 104°
2026-05-05 15:48 35.05944 -89.97458 336 ft 12 kts 93°
2026-05-05 15:49 35.05942 -89.97363 338 ft 12 kts 91°
2026-05-05 15:49 35.05937 -89.97254 333 ft 14 kts 94°
2026-05-05 15:49 35.05932 -89.97122 337 ft 17 kts 92°
2026-05-05 15:49 35.05928 -89.96981 338 ft 16 kts 92°
2026-05-05 15:50 35.05924 -89.96849 338 ft 15 kts 92°
2026-05-05 15:50 35.05921 -89.96718 334 ft 16 kts 92°
2026-05-05 15:50 35.05919 -89.96604 336 ft 10 kts 83°
2026-05-05 15:50 35.05948 -89.96555 333 ft 6 kts 37°
2026-05-05 15:51 35.05990 -89.96518 334 ft 9 kts 35°
2026-05-05 15:51 35.06037 -89.96469 333 ft 7 kts 59°
2026-05-05 15:51 35.06044 -89.96419 338 ft 6 kts 88°
2026-05-05 15:51 35.06048 -89.96396 337 ft 0 kts 64°
2026-05-05 15:52 35.06055 -89.96389 333 ft 4 kts 44°
2026-05-05 15:52 35.06079 -89.96379 334 ft 3 kts 12°
2026-05-05 15:52 35.06103 -89.96376 335 ft 2 kts
2026-05-05 15:52 35.06108 -89.96375 335 ft 0 kts
2026-05-05 15:53 35.06110 -89.96376 335 ft 0 kts